"Pseudo-MPEC" for P225jzN

Created 2025 Jan 12 3:31:08 UT using Find_Orb

Click here for an explanation of pseudo-MPECs

 
 Astrometry: 
     P225jzN* C2025 01 07.60130011 09 51.137+43 03 13.04   ~17Kl 21.50wXNEOCPF52
     P225jzN  C2025 01 07.61234411 09 54.010+43 02 19.07   ~17Kl 21.90wXNEOCPF52
     P225jzN  C2025 01 07.62337411 09 56.812+43 01 25.05   ~17Kl 21.49wXNEOCPF52
     P225jzN  C2025 01 07.63435811 09 59.637+43 00 31.15   ~17Kl 21.46wXNEOCPF52
     P225jzN  C2025 01 08.52251711 14 16.739+41 47 50.89   ~1B1H 21.84GVNEOCPF52
     P225jzN  C2025 01 08.52332511 14 16.935+41 47 46.93   ~1B1H 20.88GVNEOCPF52
     P225jzN 1C2025 01 08.59879611 14 35.124+41 41 39.88   ~18NH 21.77GVNEOCPT12
     P225jzN 1C2025 01 08.60261611 14 36.048+41 41 20.89   ~18NH 21.56GVNEOCPT12
     P225jzN KC2025 01 11.53272711 26 49.470+37 35 25.26   ~1BDl       VNEOCPI52
     P225jzN KC2025 01 11.54086611 26 51.058+37 34 43.36   ~1BDl 21.21GVNEOCPI52
     P225jzN KC2025 01 11.54899011 26 52.674+37 34 01.13   ~1BDl 21.73GVNEOCPI52
     P225jzN KC2025 01 11.55711011 26 54.301+37 33 18.61   ~1BDl 21.52GVNEOCPI52

Station data:
(F52) Pan-STARRS 2, Haleakala  (N20.707382 W156.255910)  US/Hawaii.
   Observers J. Bulger, T. Dukes, T. Lowe, A. Schultz, M. Willman. Measurers
   K. Chambers, S. Chastel, T. de Boer, L. Denneau, J. Fairlamb, H.
   Flewelling, M. Huber, C.-C. Lin, E. Magnier, Y. Ramanjooloo, R. Wainscoat,
   R. Weryk. 1.8-m Ritchey-Chrétien + CCD.
(I52) Steward Observatory, Mt. Lemmon Station  (N32.442570 W110.788920)
   US/Arizona.  Observers T. A. Pruyne, B. M. Africano, E. J. Christensen, G.
   A. Farneth, D. C. Fuls, A. R. Gibbs, A. D. Grauer, H. Gröller, J. A.
   Johnson, R. A. Kowalski, S. M. Larson, G. J. Leonard, D. Rankin, R. L.
   Seaman, F. C. Shelly, K. W. Wierzchoś. 1.0-m prime focus + CCD.
(T12) Mauna Kea-UH/Tholen NEO Follow-Up (2.24-m)  (N19.822991 W155.469434)
   US/Hawaii.  Observer R. Weryk. 2.24-m f/10.1 University of Hawaii
   reflector.

Orbital elements:  P225jzN
   Perihelion 2025 Jan 10.97271 +/- 0.00537 TT = 23:20:42 (JD 2460686.47271)
Epoch 2025 Jan 11.0 TT = JDT 2460686.5   Earth MOID: 0.0994      AutoNEOCP
M   0.00860569 +/- 0.0016           (J2000 ecliptic)
n   0.31539456 +/- 0.00213          Peri.  143.76183 +/- 0.016
a   2.13746944 +/- 0.00963          Node   330.85029 +/- 0.023
e   0.5012734 +/- 0.0021            Incl.    6.07773 +/- 0.019
P   3.12500                H 24.20  G  0.15   U  8.6
q 1.06601271 +/- 0.000319    Q 3.20892616 +/- 0.0189
From 12 observations 2025 Jan. 7-11; mean residual 0".15
Residuals in arcseconds: 
250107 F52  .17-  .05+    250108 F52  .10-  .26+    250111 I52  .12+  .11-    
250107 F52  .21+  .08-    250108 F52  .12-  .19+    250111 I52  .21-  .12+    
250107 F52  .15-  .12-    250108 T12  .01-  .03+    250111 I52  .23-  .03+    
250107 F52  .14-  .04-    250108 T12  .10+  .06-    250111 I52  .16-  .30-    

Ephemerides (geocentric):
Date (UTC) HH   RA             Dec           delta  r     elong  mag " sig PA
---- --------  ------------   ------------  ------ ------ -----  --- --------
2025 01 12 04  11 29 12.058   +36 41 28.15  .12796 1.0661 127.4 21.7 .078  10
2025 01 12 05  11 29 21.106   +36 37 55.32  .12796 1.0661 127.4 21.7 .080  11
2025 01 12 06  11 29 30.128   +36 34 22.45  .12797 1.0661 127.4 21.7 .082  12
2025 01 12 07  11 29 39.124   +36 30 49.56  .12797 1.0661 127.4 21.7 .083  13
2025 01 12 08  11 29 48.094   +36 27 16.63  .12797 1.0661 127.4 21.7 .085  13
2025 01 12 09  11 29 57.039   +36 23 43.67  .12798 1.0661 127.4 21.7 .087  14
2025 01 12 10  11 30 05.957   +36 20 10.68  .12798 1.0661 127.4 21.7 .089  15
2025 01 12 11  11 30 14.850   +36 16 37.66  .12798 1.0662 127.4 21.7 .091  16
2025 01 12 12  11 30 23.717   +36 13 04.61  .12799 1.0662 127.4 21.7 .093  16
2025 01 12 13  11 30 32.558   +36 09 31.54  .12799 1.0662 127.5 21.7 .095  17
2025 01 12 14  11 30 41.374   +36 05 58.44  .12800 1.0662 127.5 21.7 .097  18
2025 01 12 15  11 30 50.164   +36 02 25.31  .12800 1.0662 127.5 21.7 .099  18
2025 01 12 16  11 30 58.928   +35 58 52.16  .12800 1.0662 127.5 21.7 .101  19
2025 01 12 17  11 31 07.667   +35 55 18.99  .12801 1.0662 127.5 21.7 .103  19
2025 01 12 18  11 31 16.381   +35 51 45.80  .12801 1.0662 127.5 21.7 .105  20
2025 01 12 19  11 31 25.069   +35 48 12.58  .12802 1.0662 127.5 21.7 .108  21
2025 01 12 20  11 31 33.732   +35 44 39.35  .12802 1.0662 127.5 21.7 .110  21
2025 01 12 21  11 31 42.370   +35 41 06.09  .12803 1.0662 127.5 21.7 .112  22
2025 01 12 22  11 31 50.983   +35 37 32.82  .12804 1.0663 127.5 21.7 .115  22
2025 01 12 23  11 31 59.570   +35 33 59.53  .12804 1.0663 127.5 21.7 .117  23
2025 01 13 00  11 32 08.132   +35 30 26.22  .12805 1.0663 127.5 21.7 .120  23
2025 01 13 01  11 32 16.669   +35 26 52.90  .12805 1.0663 127.5 21.7 .122  24
2025 01 13 02  11 32 25.181   +35 23 19.57  .12806 1.0663 127.5 21.7 .125  24
2025 01 13 03  11 32 33.669   +35 19 46.22  .12807 1.0663 127.5 21.7 .128  25
2025 01 13 04  11 32 42.131   +35 16 12.86  .12807 1.0663 127.5 21.7 .130  25
2025 01 13 05  11 32 50.568   +35 12 39.48  .12808 1.0663 127.5 21.7 .133  25
2025 01 13 06  11 32 58.981   +35 09 06.10  .12809 1.0664 127.5 21.7 .136  26
2025 01 13 07  11 33 07.368   +35 05 32.71  .12809 1.0664 127.5 21.7 .139  26
2025 01 13 08  11 33 15.731   +35 01 59.31  .12810 1.0664 127.5 21.7 .142  27
2025 01 13 09  11 33 24.070   +34 58 25.90  .12811 1.0664 127.5 21.7 .145  27
2025 01 13 10  11 33 32.383   +34 54 52.48  .12812 1.0664 127.5 21.7 .148  27
2025 01 13 11  11 33 40.672   +34 51 19.06  .12813 1.0664 127.5 21.7 .151  28
2025 01 13 12  11 33 48.937   +34 47 45.64  .12813 1.0664 127.5 21.7 .154  28
2025 01 13 13  11 33 57.177   +34 44 12.21  .12814 1.0664 127.5 21.7 .157  29
2025 01 13 14  11 34 05.393   +34 40 38.78  .12815 1.0665 127.5 21.7 .160  29
2025 01 13 15  11 34 13.584   +34 37 05.34  .12816 1.0665 127.5 21.7 .163  29
2025 01 13 16  11 34 21.751   +34 33 31.91  .12817 1.0665 127.5 21.7 .166  30
2025 01 13 17  11 34 29.893   +34 29 58.47  .12818 1.0665 127.5 21.7 .170  30
2025 01 13 18  11 34 38.012   +34 26 25.04  .12819 1.0665 127.5 21.7 .173  30
2025 01 13 19  11 34 46.106   +34 22 51.61  .12820 1.0665 127.5 21.7 .177  30
2025 01 13 20  11 34 54.176   +34 19 18.18  .12821 1.0665 127.6 21.7 .180  31
2025 01 13 21  11 35 02.221   +34 15 44.75  .12822 1.0666 127.6 21.7 .183  31
2025 01 13 22  11 35 10.243   +34 12 11.33  .12823 1.0666 127.6 21.7 .187  31
2025 01 13 23  11 35 18.241   +34 08 37.91  .12824 1.0666 127.6 21.7 .191  32
2025 01 14 00  11 35 26.215   +34 05 04.51  .12825 1.0666 127.6 21.7 .194  32
2025 01 14 01  11 35 34.165   +34 01 31.10  .12826 1.0666 127.6 21.7 .198  32
2025 01 14 02  11 35 42.091   +33 57 57.71  .12827 1.0666 127.6 21.7 .202  32
2025 01 14 03  11 35 49.993   +33 54 24.33  .12828 1.0667 127.6 21.7 .205  33